Location: Unspecified
(0.0000°N, 0.0000°E)
Time: 06:05:09
(UTC+00:00)

Tiros 1 despin weight - Pass Details

Date: 08 October 2020
Orbit: 594 x 641 km, 48.2° (Epoch: 28 October)

Event Time Altitude Azimuth Distance (km) Brightness Sun altitude
Rises 16:46:05 0° 319° (NW) 2,903 ? 15.2°
Reaches altitude 10° 16:48:23 10° 318° (NW) 2,004 ? 14.7°
Maximum altitude 16:53:00 79° 232° (SW) 650 ? 13.5°
Drops below altitude 10° 16:57:41 10° 145° (SE) 2,026 ? 12.3°
Sets 17:00:01 0° 143° (SE) 2,938 ? 11.8°
